Home   Weather   Cardiff   Past weeks

Flag for United Kingdom Past Weather in Cardiff, Wales, United Kingdom — Yesterday and Last 2 Weeks

Now
39 °F

Overcast.


Feels Like: 32 °F
Forecast: N/A
Wind: 12 mph from East

Location: Wales Airport

Current Time: Dec 4, 2016 at 10:39:56 pm

Latest Report: Dec 4, 2016 at 10:20 pm


Visibility: N/A

Pressure: 30.18 "Hg

Humidity: 81%

Dew Point: 34 °F

Location of CardiffLocation

Past Weather in Cardiff — Graph

°F

Cardiff Temperature Yesterday

Maximum temperature yesterday: 45 °F (at 11:20 am)
Minimum temperature yesterday: 37 °F (at 11:20 pm)
Average temperature yesterday: 42 °F

High & Low Weather Summary for the Past Weeks

 TemperatureHumidityPressure
High48 °F (Nov 24, 11:20 am)100% (Nov 19, 9:20 pm)30.60 "Hg (Nov 19, 9:20 pm)
Low27 °F (Nov 30, 7:50 am)53% (Nov 28, 2:50 pm)28.80 "Hg (Nov 20, 1:50 am)
Average41 °F87%30.07 "Hg
* Reported Nov 19 9:20 pm — Dec 4 9:20 pm, Cardiff, Weather by CustomWeather, © 2016

Note: Actual official high and low records may vary slightly from our data, if they occured in-between our weather recording intervals... More about our weather records

Advertising

Cardiff Weather History for the Previous 24 Hours

Scroll right to see more
 ConditionsComfort  
Time TempWeatherWind HumidityBarometerVisibility
9:20 pm
Sun, Dec 4
39 °FOvercast.12 mph81%30.18 "HgN/A
8:50 pm37 °FOvercast.12 mph87%30.18 "HgN/A
8:20 pm37 °FPassing clouds.14 mph87%30.18 "HgN/A
7:50 pm37 °FChilly.14 mph87%30.18 "HgN/A
7:20 pm39 °FChilly.16 mph81%30.15 "HgN/A
6:50 pm39 °FChilly.17 mph81%30.15 "HgN/A
6:20 pm39 °FChilly.16 mph81%30.15 "HgN/A
5:50 pm39 °FChilly.14 mph81%30.15 "HgN/A
5:20 pm39 °FChilly.17 mph81%30.15 "HgN/A
4:50 pm39 °FChilly.17 mph81%30.15 "HgN/A
4:20 pm41 °FQuite cool.14 mph76%30.15 "HgN/A
3:50 pm41 °FQuite cool.15 mph76%30.12 "HgN/A
3:20 pm41 °FQuite cool.16 mph81%30.12 "HgN/A
2:50 pm43 °FQuite cool.15 mph71%30.12 "HgN/A
2:20 pm43 °FQuite cool.17 mph71%30.12 "HgN/A
1:50 pm43 °FQuite cool.21 mph71%30.12 "HgN/A
1:20 pm43 °FQuite cool.17 mph76%30.12 "HgN/A
12:50 pm41 °FQuite cool.20 mph81%30.15 "HgN/A
12:20 pm41 °FQuite cool.18 mph81%30.15 "HgN/A
11:50 am41 °FQuite cool.18 mph81%30.15 "HgN/A
11:20 am41 °FQuite cool.20 mph81%30.15 "HgN/A
10:50 am39 °FChilly.18 mph87%30.18 "HgN/A
10:20 am39 °FChilly.16 mph81%30.18 "HgN/A
9:50 am37 °FChilly.17 mph87%30.18 "HgN/A
9:20 am37 °FChilly.17 mph87%30.18 "HgN/A
8:50 am37 °FChilly.14 mph87%30.18 "HgN/A
8:20 am36 °FChilly.14 mph93%30.18 "HgN/A
7:50 am36 °FChilly.17 mph93%30.18 "HgN/A
7:20 am36 °FChilly.13 mph93%30.18 "HgN/A
6:50 am36 °FChilly.14 mph93%30.18 "HgN/A
6:20 am36 °FChilly.17 mph93%30.18 "HgN/A
5:50 am36 °FChilly.18 mph93%30.18 "HgN/A
5:20 am36 °FChilly.17 mph93%30.18 "HgN/A
4:50 am36 °FChilly.14 mph93%30.18 "HgN/A
4:20 am36 °FPassing clouds.15 mph93%30.18 "HgN/A
3:50 am37 °FChilly.16 mph87%30.18 "HgN/A
3:20 am37 °FChilly.17 mph87%30.18 "HgN/A
2:50 am37 °FChilly.15 mph87%30.18 "HgN/A
2:20 am37 °FChilly.16 mph87%30.18 "HgN/A
1:50 am37 °FChilly.15 mph87%30.18 "HgN/A
1:20 am37 °FChilly.15 mph87%30.18 "HgN/A
12:50 am37 °FChilly.16 mph87%30.18 "HgN/A
12:20 am37 °FChilly.17 mph87%30.18 "HgN/A
11:50 pm
Sat, Dec 3
37 °FChilly.18 mph87%30.18 "HgN/A
11:20 pm37 °FChilly.18 mph87%30.18 "HgN/A
10:50 pm39 °FChilly.18 mph81%30.18 "HgN/A
10:20 pm39 °FChilly.21 mph81%30.18 "HgN/A
Weather by CustomWeather, © 2016

See weather overviewHow to use our weather pages